AS211 Weather Reports


time (UTC)temp
C
wind
direction
speed
KPH
gust
KPH
rain 1hr
cm
rain 24hr
cm
rain mn
cm
humidity
%
barometer
mb
20260506073504 4 90 1.6 4.8 0.00 0.00 0.00 78 1010.2
20260506073004 4 81 3.2 4.8 0.00 0.00 0.00 78 1009.8
20260506072503 4 86 4.8 4.8 0.00 0.00 0.00 78 1010.2
20260506072004 4 79 1.6 4.8 0.00 0.00 0.00 78 1009.8
20260506071503 4 97 1.6 4.8 0.00 0.00 0.00 77 1009.8
20260506070504 4 87 3.2 4.8 0.00 0.00 0.00 77 1009.8
20260506062502 4 86 3.2 4.8 0.00 0.00 0.00 76 1009.8
20260506062003 4 83 3.2 4.8 0.00 0.00 0.00 76 1010.2
20260506061503 5 83 3.2 4.8 0.00 0.00 0.00 75 1010.2
20260506060502 4 79 4.8 4.8 0.00 0.00 0.00 75 1010.2
20260506051002 4 98 3.2 3.2 0.00 0.00 0.00 76 1011.2
20260506050503 4 79 0.0 3.2 0.00 0.00 0.00 76 1011.5
20260506044503 5 108 1.6 3.2 0.00 0.00 0.00 74 1011.1
20260506044004 5 100 3.2 4.8 0.00 0.00 0.00 74 1010.9
20260506043503 5 91 3.2 4.8 0.00 0.00 0.00 75 1010.8
20260506043002 5 109 3.2 4.8 0.00 0.00 0.00 74 1011.1
20260506042503 5 114 3.2 4.8 0.00 0.00 0.00 75 1010.9
20260506041504 4 110 3.2 3.2 0.00 0.00 0.00 75 1011.2
20260506041003 4 106 1.6 3.2 0.00 0.00 0.00 75 1011.0
20260506040503 4 116 3.2 3.2 0.00 0.00 0.00 76 1011.0
20260506040004 4 113 3.2 3.2 0.00 0.00 0.00 75 1011.1
20260506035003 4 127 3.2 3.2 0.00 0.00 0.00 76 1010.7
20260506034502 4 115 3.2 3.2 0.00 0.00 0.00 76 1011.1
20260506034002 4 119 1.6 3.2 0.00 0.00 0.00 77 1010.8
20260506033502 4 108 0.0 3.2 0.00 0.00 0.00 77 1010.5
20260506033005 4 105 1.6 3.2 0.00 0.00 0.00 77 1010.8
20260506032504 4 90 3.2 3.2 0.00 0.00 0.00 76 1011.2
20260506032002 4 97 3.2 3.2 0.00 0.00 0.00 77 1011.2
20260506031503 4 114 3.2 4.8 0.00 0.00 0.00 76 1010.8
20260506031004 4 108 3.2 4.8 0.00 0.00 0.00 76 1010.8
20260506030502 4 104 3.2 4.8 0.00 0.00 0.00 76 1011.2
20260506030003 5 106 3.2 4.8 0.00 0.00 0.00 76 1010.8
20260506025502 5 100 1.6 4.8 0.00 0.00 0.00 76 1011.2
20260506025003 5 106 1.6 4.8 0.00 0.00 0.00 76 1011.2
20260506024503 5 123 1.6 3.2 0.00 0.00 0.00 76 1011.2
20260506024003 5 92 3.2 3.2 0.00 0.00 0.00 76 1010.8
20260506023503 5 134 3.2 3.2 0.00 0.00 0.00 75 1011.2
20260506023003 5 111 1.6 3.2 0.00 0.00 0.00 74 1011.2
20260506022502 5 89 1.6 4.8 0.00 0.00 0.00 73 1011.2
20260506022002 5 79 3.2 4.8 0.00 0.00 0.00 73 1011.2
20260506021502 5 117 3.2 4.8 0.00 0.00 0.00 73 1011.2
20260506021003 5 128 3.2 4.8 0.00 0.00 0.00 73 1010.8
20260506020502 5 74 3.2 4.8 0.00 0.00 0.00 72 1011.2
20260506020002 5 101 3.2 3.2 0.00 0.00 0.00 72 1010.8
20260506015503 5 98 3.2 3.2 0.00 0.00 0.00 73 1011.2
20260506015003 5 89 3.2 3.2 0.00 0.00 0.00 72 1010.8
20260506013502 5 73 3.2 4.8 0.00 0.00 0.00 73 1010.8
20260506013003 5 81 0.0 4.8 0.00 0.00 0.00 72 1010.5
20260506012503 5 96 3.2 4.8 0.00 0.00 0.00 72 1010.8
20260506012003 5 98 3.2 4.8 0.00 0.00 0.00 73 1010.2
20260506011502 5 86 3.2 4.8 0.00 0.00 0.00 72 1010.2
20260506011002 5 53 3.2 4.8 0.00 0.00 0.00 72 1010.2
20260506010504 5 46 3.2 4.8 0.00 0.00 0.00 72 1010.5
20260506010003 5 51 3.2 4.8 0.00 0.00 0.00 72 1010.5
20260506005503 5 63 3.2 8.0 0.00 0.00 0.00 71 1010.2
20260506005003 5 35 1.6 8.0 0.00 0.00 0.00 71 1010.2
20260506004504 5 38 3.2 9.7 0.00 0.00 0.00 71 1010.2
20260506004003 5 32 3.2 9.7 0.00 0.00 0.00 71 1010.2
20260506003503 6 63 4.8 9.7 0.00 0.00 0.00 70 1010.2
20260506003003 6 63 3.2 9.7 0.00 0.00 0.00 70 1010.2
20260506002503 6 50 4.8 9.7 0.00 0.00 0.00 70 1009.8
20260506002003 6 45 4.8 9.7 0.00 0.00 0.00 70 1010.2
20260506001502 6 82 3.2 9.7 0.00 0.00 0.00 70 1010.2
20260506001004 6 75 3.2 9.7 0.00 0.00 0.00 69 1010.2
20260506000502 6 67 1.6 11.3 0.00 0.00 0.00 69 1010.2
20260506000003 6 80 1.6 11.3 0.00 0.00 0.00 69 1009.5
20260505235503 6 57 3.2 11.3 0.00 0.00 0.00 68 1009.8
20260505235003 6 74 3.2 14.5 0.00 0.00 0.00 68 1009.5
20260505234504 6 35 4.8 14.5 0.00 0.00 0.00 68 1009.8
20260505233503 7 333 4.8 12.9 0.00 0.00 0.00 68 1009.5
20260505233003 7 25 12.9 12.9 0.00 0.00 0.00 66 1009.5
20260505232503 7 13 1.6 9.7 0.00 0.00 0.00 65 1009.8
20260505232003 7 315 8.0 14.5 0.00 0.00 0.00 64 1010.2
20260505231503 7 32 0.0 14.5 0.00 0.00 0.00 65 1009.5
20260505231003 7 290 4.8 14.5 0.00 0.00 0.00 64 1009.1
20260505230503 7 64 0.0 9.7 0.00 0.00 0.00 65 1009.5
20260505230003 7 330 3.2 11.3 0.00 0.00 0.00 65 1009.1
20260505225002 7 318 3.2 12.9 0.00 0.00 0.00 65 1010.2
20260505224002 7 311 4.8 12.9 0.00 0.00 0.00 65 1009.5
20260505223503 7 332 4.8 12.9 0.00 0.00 0.00 65 1009.5
20260505223003 7 323 4.8 9.7 0.00 0.00 0.00 64 1009.8
20260505222503 7 352 3.2 9.7 0.00 0.00 0.00 64 1009.8
20260505221504 7 295 1.6 11.3 0.00 0.00 0.00 64 1009.8
20260505221004 8 308 4.8 11.3 0.00 0.00 0.00 64 1009.6
20260505220503 8 326 4.8 11.3 0.00 0.00 0.00 64 1009.5
20260505215503 8 298 3.2 11.3 0.00 0.00 0.00 64 1010.0
20260505214003 7 318 4.8 9.7 0.00 0.00 0.00 64 1009.4
20260505213502 8 286 4.8 12.9 0.00 0.00 0.00 64 1009.1
20260505213003 7 234 3.2 12.9 0.00 0.00 0.00 64 1009.1
20260505212503 7 309 3.2 12.9 0.00 0.00 0.00 64 1009.1
20260505212004 7 281 4.8 12.9 0.00 0.00 0.00 64 1009.1
20260505211504 7 326 3.2 12.9 0.00 0.00 0.00 64 1009.5
20260505211003 8 322 3.2 11.3 0.00 0.00 0.00 63 1009.1
20260505210503 7 6 3.2 11.3 0.00 0.00 0.00 65 1009.5
20260505210003 7 27 1.6 11.3 0.00 0.00 0.00 64 1009.1
20260505205503 7 253 1.6 11.3 0.00 0.00 0.00 65 1009.5
20260505205004 7 309 3.2 11.3 0.00 0.00 0.00 65 1009.5
20260505204503 7 7 3.2 14.5 0.00 0.00 0.00 66 1009.5
20260505204003 7 45 1.6 14.5 0.00 0.00 0.00 66 1009.5
20260505203503 7 329 4.8 14.5 0.00 0.00 0.00 65 1009.1
20260505203004 7 358 8.0 14.5 0.00 0.00 0.00 65 1009.5
20260505201003 7 305 8.0 11.3 0.00 0.00 0.00 66 1009.1
20260505195503 7 286 8.0 16.1 0.00 0.00 0.00 67 1009.1
20260505195003 7 321 9.7 16.1 0.00 0.00 0.00 67 1008.5
20260505194503 7 24 4.8 16.1 0.00 0.00 0.00 67 1008.5
20260505194003 7 326 4.8 14.5 0.00 0.00 0.00 67 1008.8
20260505193503 7 305 8.0 16.1 0.00 0.00 0.00 66 1008.5
20260505193003 7 294 4.8 19.3 0.00 0.00 0.00 66 1008.8
20260505192003 7 317 12.9 19.3 0.00 0.00 0.00 66 1008.5
20260505191003 7 310 11.3 16.1 0.00 0.00 0.00 67 1008.8
20260505190504 7 298 9.7 19.3 0.00 0.00 0.00 66 1008.5
20260505190005 7 300 4.8 19.3 0.00 0.00 0.00 66 1008.1
20260505185004 7 302 16.1 19.3 0.00 0.00 0.00 67 1008.5
20260505184503 7 25 4.8 19.3 0.00 0.00 0.00 67 1008.1
20260505184003 7 326 11.3 22.5 0.00 0.00 0.00 67 1008.5
20260505183004 7 309 3.2 22.5 0.00 0.00 0.00 67 1007.8
20260505182503 7 324 3.2 12.9 0.00 0.00 0.00 67 1008.5
20260505182004 7 309 11.3 12.9 0.00 0.00 0.00 67 1007.8
20260505181503 7 0 0.0 16.1 0.00 0.00 0.00 66 1007.8
20260505181003 7 333 11.3 16.1 0.00 0.00 0.00 65 1007.8
20260505180004 7 16 11.3 16.1 0.00 0.00 0.00 64 1007.5
20260505175003 7 328 1.6 16.1 0.00 0.00 0.00 65 1007.5
20260505174504 7 15 9.7 16.1 0.00 0.00 0.00 65 1007.5
20260505174003 7 330 3.2 16.1 0.00 0.00 0.00 65 1007.5
20260505173505 7 54 4.8 20.9 0.00 0.00 0.00 66 1007.5
20260505173003 7 11 4.8 20.9 0.00 0.00 0.00 66 1007.1
20260505172503 7 309 4.8 20.9 0.00 0.00 0.00 65 1006.8
20260505172003 7 0 3.2 19.3 0.00 0.00 0.00 67 1007.1
20260505171503 7 281 8.0 19.3 0.00 0.00 0.00 66 1007.5
20260505171003 7 358 11.3 19.3 0.00 0.00 0.00 66 1007.1
20260505170004 7 301 9.7 19.3 0.00 0.00 0.00 70 1007.4
20260505165503 6 294 14.5 19.3 0.00 0.00 0.00 71 1006.8
20260505165005 6 321 11.3 19.3 0.00 0.00 0.00 71 1007.0
20260505164503 6 284 9.7 24.1 0.00 0.00 0.00 71 1007.1
20260505164004 6 300 4.8 24.1 0.00 0.00 0.00 73 1007.1
20260505163503 6 312 6.4 24.1 0.00 0.00 0.00 73 1006.9
20260505163003 6 312 6.4 24.1 0.00 0.00 0.00 72 1006.9
20260505162503 6 347 4.8 19.3 0.00 0.00 0.00 72 1007.3
20260505162003 7 15 1.6 24.1 0.00 0.00 0.00 71 1007.3
20260505160503 7 292 9.7 27.4 0.00 0.00 0.00 66 1007.4
20260505153004 7 271 11.3 38.6 0.00 0.00 0.00 67 1006.4
20260505152504 7 287 12.9 38.6 0.00 0.00 0.00 67 1006.4
20260505151503 8 300 8.0 32.2 0.00 0.00 0.00 65 1006.1
20260505151003 8 341 14.5 32.2 0.00 0.00 0.00 65 1006.1
20260505150504 8 293 9.7 20.9 0.00 0.00 0.00 65 1005.4
20260505140504 7 294 3.2 22.5 0.00 0.00 0.00 76 1004.1
20260505125004 6 338 9.7 24.1 0.00 0.00 0.00 83 1003.4
20260505124503 6 317 11.3 24.1 0.00 0.00 0.00 84 1004.1
20260505124003 6 296 4.8 24.1 0.00 0.00 0.00 84 1003.7
20260505123503 6 304 11.3 22.5 0.00 0.00 0.00 85 1003.4
20260505123004 6 329 11.3 20.9 0.00 0.00 0.00 86 1003.4
20260505122504 6 305 12.9 20.9 0.00 0.00 0.00 86 1003.4
20260505122004 6 264 4.8 20.9 0.00 0.00 0.00 86 1003.0
20260505121504 6 298 9.7 19.3 0.00 0.00 0.00 86 1003.0
20260505120504 6 294 11.3 19.3 0.00 0.00 0.00 88 1002.7
20260505120006 6 341 11.3 19.3 0.00 0.00 0.00 88 1002.4
20260505115504 6 283 3.2 19.3 0.00 0.00 0.00 88 1002.4
20260505115004 6 314 3.2 20.9 0.00 0.00 0.00 88 1002.4
20260505114504 6 298 12.9 25.7 0.00 0.00 0.00 88 1001.7
20260505114005 6 309 8.0 32.2 0.00 0.00 0.00 88 1002.0
20260505113503 6 304 14.5 32.2 0.00 0.00 0.00 88 1002.4
20260505113004 7 298 20.9 32.2 0.00 0.00 0.00 87 1002.7
20260505112505 7 306 14.5 32.2 0.00 0.00 0.00 87 1002.2
20260505112003 8 301 6.4 27.4 0.00 0.00 0.00 88 1001.8
20260505111004 8 282 9.7 27.4 0.00 0.00 0.00 90 1001.8
20260505110504 9 279 9.7 27.4 0.00 0.00 0.00 89 1001.3
20260505102004 13 177 3.2 9.7 0.00 0.00 0.00 81 1000.0
20260505101504 13 195 3.2 9.7 0.00 0.00 0.00 81 999.7
20260505100004 13 193 4.8 12.9 0.00 0.00 0.00 80 999.7
20260505095005 13 179 4.8 14.5 0.00 0.00 0.00 80 999.7
20260505094003 13 190 1.6 16.1 0.00 0.00 0.00 80 999.7
20260505093004 13 199 4.8 16.1 0.00 0.00 0.00 80 999.7
20260505092004 13 184 11.3 12.9 0.00 0.00 0.00 80 999.7
20260505091503 13 226 1.6 4.8 0.00 0.00 0.00 80 999.3
20260505091005 13 183 3.2 12.9 0.00 0.00 0.00 80 999.7
20260505090504 13 183 3.2 12.9 0.00 0.00 0.00 80 999.7
20260505090003 13 214 3.2 12.9 0.00 0.00 0.00 79 999.3
20260505085503 13 199 8.0 11.3 0.00 0.00 0.00 80 999.7
20260505085005 13 175 3.2 11.3 0.00 0.00 0.00 79 999.7
20260505084505 13 167 0.0 11.3 0.00 0.00 0.00 79 999.7
20260505084004 13 199 11.3 11.3 0.00 0.00 0.00 79 999.7
20260505083504 13 301 1.6 8.0 0.00 0.00 0.00 78 999.7
20260505083004 13 155 1.6 4.8 0.00 0.00 0.00 77 999.7
20260505082503 14 175 1.6 9.7 0.00 0.00 0.00 76 999.7
20260505082004 14 205 0.0 9.7 0.00 0.00 0.00 75 1000.0
20260505081503 14 172 8.0 9.7 0.00 0.00 0.00 74 1000.0
20260505081003 14 195 3.2 14.5 0.00 0.00 0.00 74 1000.0
20260505080503 15 249 3.2 14.5 0.00 0.00 0.00 74 999.7
20260505080004 15 204 8.0 14.5 0.00 0.00 0.00 74 1000.3